sat.trackr.live / text

‹ back to catalog

STARLINK-35775

NORAD 67038 · 2025-294J

PAYLOAD ACTIVE UNKNOWN

§ Identity

Operator
Country
US
Launch date
2025-12-11
Launch site
AFETR
Launch vehicle
Mass (kg)
RCS (m²)

Purposes: comms

External: N2YO · Heavens-Above · Gunter

§ Orbital elements

Epoch: 2026-09-20T19:34:12.922176Z

Period
94.27 min
Inclination
43.0029°
Eccentricity
0.0001841
Mean motion
15.27577359 rev/d
Perigee alt
481.8 km
Apogee alt
484.3 km
Semi-major
6,861.2 km
B*
3.9220e-4
RAAN
15.8926°
Arg perigee
267.7689°
Mean anomaly
92.2952°
Rev number
4,465

§ Raw data

STARLINK-357751 67038U 25294J   26263.81542734  .00010545  00000+0  39220-3 0  99922 67038  43.0029  15.8926 0001841 267.7689  92.2952 15.27577359 44653

JSON: /api/v1/satellites/67038 · /tle

For live sub-satellite position, see the globe view (requires WebGL).

§ Visibility from observer

Set your observer location to see the next 7 days of passes ≥ 10°. The values pass through the URL so the page stays shareable.

No JS? Fill the form by hand. The geolocation button needs JavaScript.